Wind_Speed
6 4 1 3 3 4 3 6 3 3 1 2 2 4 5 2 2 3 3 17 13 28 27 24 24 24 23 21 19 18 17 16 15 15 14 14 14 14 14 14 13 12 12 12 12 12 11 11 11
5 2 3 2 4 3 5 5 4 2 5 7 7 2 3 3 3 3 7 16 16 33 29 26 24 23 23 21 19 17 15 14 14 14 13 12 12 12 11 11 11 10 10 10 12 11 12 11 10
1 3 3 4 3 2 3 4 2 3 9 3 5 4 2 1 4 10 6 19 26 29 28 26 24 24 23 21 19 17 15 14 13 13 12 11 11 11 11 11 9 7 7 7 10 11 11 10 9
2 5 4 4 3 6 4 5 5 7 2 6 2 6 2 2 6 9 22 26 31 28 27 25 24 23 23 22 21 19 17 16 14 13 12 11 10 9 11 7 6 4 4 6 7 8 9 8 8
4 3 3 2 4 5 5 6 4 2 4 2 1 4 2 4 9 22 25 27 28 27 25 24 23 23 23 22 21 20 20 18 17 15 13 12 11 10 9 8 6 4 4 4 6 7 7 8 8
4 3 4 2 4 6 7 2 5 3 3 4 5 5 2 10 18 22 23 25 23 24 23 22 20 20 19 19 19 19 18 18 17 16 15 14 13 12 11 9 8 7 6 5 5 6 7 8 10
5 4 2 3 4 6 4 1 2 2 7 4 9 4 2 4 16 24 22 20 20 20 23 22 20 18 17 17 17 17 16 16 15 15 14 12 11 9 8 10 10 9 7 5 5 6 7 9 12
4 4 2 4 3 6 4 7 2 2 0 5 4 5 4 8 21 24 21 20 18 19 21 22 22 22 22 22 20 19 18 17 17 16 15 14 12 10 9 10 9 6 6 6 5 5 7 11 15
2 3 1 4 2 6 4 5 6 3 4 2 2 2 4 24 25 25 21 20 21 23 24 27 29 28 26 23 21 19 17 17 17 16 15 15 14 12 10 8 6 7 7 7 5 5 6 10 16
4 3 5 5 3 5 7 3 3 5 4 1 2 5 17 26 22 18 17 15 22 25 26 26 25 24 23 22 21 20 20 20 20 18 17 16 14 11 10 8 9 10 10 9 7 7 6 9 13
3 5 5 8 12 6 4 5 2 2 3 4 5 7 11 18 15 14 16 23 28 30 28 26 24 23 24 23 21 19 19 19 18 17 17 16 15 13 13 12 12 12 12 11 10 9 8 10 12
2 7 3 6 5 4 4 3 4 4 7 6 7 12 12 14 14 17 19 24 28 30 29 26 24 23 23 22 21 21 21 20 19 19 18 19 18 17 16 15 13 13 13 12 11 11 9 9 11
5 3 5 8 8 6 5 7 4 6 7 2 10 13 13 15 16 22 16 17 26 28 28 26 24 25 25 25 23 21 21 22 21 20 20 21 21 20 19 18 16 15 14 13 12 13 12 11 12
3 5 8 6 8 6 6 5 3 9 5 6 10 13 13 14 18 13 17 21 28 29 30 28 28 26 26 26 24 23 21 21 22 22 22 23 23 21 20 20 20 20 18 16 15 15 15 14 16
4 6 8 5 4 6 8 7 7 8 2 8 11 12 12 15 10 17 24 27 32 33 31 32 31 30 28 27 24 22 21 21 23 23 23 24 24 23 22 22 23 23 22 19 18 16 16 16 16
4 3 5 5 6 5 3 12 8 7 1 9 9 8 7 8 11 21 25 30 34 32 34 33 32 31 30 29 28 24 25 24 22 23 22 23 25 25 24 23 23 22 24 24 22 19 19 18 18
4 3 2 8 4 3 2 7 6 4 5 6 6 2 5 4 3 17 35 33 34 38 35 32 31 31 31 26 25 25 23 21 20 19 19 21 24 25 23 23 24 24 25 24 25 22 21 25 20
3 3 4 5 6 7 5 7 8 7 6 8 8 0 6 5 2 5 20 29 31 33 33 30 28 28 27 24 23 20 17 18 17 16 18 21 22 24 24 23 23 25 25 26 25 26 25 19 19
4 4 5 6 4 4 3 6 11 10 6 9 10 8 8 9 3 1 6 19 25 28 31 30 29 23 23 22 18 14 14 13 12 14 16 17 20 22 23 22 23 24 25 27 28 26 22 16 13
6 5 5 5 3 1 6 10 14 9 7 7 9 7 11 5 2 4 10 14 25 28 29 27 25 23 23 19 16 7 9 10 14 14 16 18 19 20 22 23 24 25 25 25 27 27 20 23 20
4 4 4 5 4 4 5 8 7 5 4 6 6 5 7 9 7 4 6 12 19 19 23 23 22 21 17 13 9 9 10 10 14 15 16 17 19 21 23 24 24 25 25 26 25 25 24 16 22
2 4 3 4 5 4 3 5 7 7 7 6 7 2 8 10 7 6 6 13 20 20 21 20 20 17 13 12 11 10 10 11 12 13 13 15 18 20 21 22 25 28 28 27 27 25 25 25 17
7 3 1 1 3 4 1 1 7 5 7 5 2 4 6 8 8 8 7 17 20 22 21 20 18 17 15 12 12 12 12 12 14 15 15 19 20 21 21 22 21 24 27 26 25 25 26 26 24
3 2 4 4 3 2 6 6 5 4 4 3 2 4 8 8 7 7 14 21 21 21 22 21 20 16 14 13 13 11 12 14 16 17 17 18 19 20 20 19 17 17 19 19 19 20 23 23 29
4 5 3 4 2 6 2 3 8 6 8 6 10 9 8 8 8 9 9 12 19 20 20 19 17 16 16 16 14 14 15 16 19 21 19 18 19 20 20 17 18 17 17 16 16 16 19 18 23
6 8 5 6 4 5 4 6 6 5 7 4 9 9 8 8 7 9 9 15 20 21 20 18 18 16 16 15 16 16 19 19 22 23 22 21 21 18 16 16 18 19 20 20 19 19 19 18 20
3 4 4 1 2 3 5 8 7 2 3 4 12 13 12 9 9 8 8 16 18 17 19 18 18 18 16 17 17 17 19 22 25 27 25 24 24 22 15 15 16 17 18 19 18 19 20 20 21
5 5 2 2 4 6 5 6 6 6 7 6 9 14 10 10 8 8 7 16 18 19 20 19 19 18 17 17 18 19 17 16 20 24 29 29 27 24 20 18 18 17 16 15 16 18 19 19 21
2 3 2 3 4 5 8 7 7 9 9 13 15 12 13 10 9 9 7 20 21 19 18 17 17 18 20 20 17 14 11 11 12 17 21 24 28 24 22 21 20 19 17 13 14 18 21 18 19
2 5 6 5 6 4 3 22 6 9 9 9 10 9 8 8 9 9 8 12 12 12 13 15 14 16 19 16 12 11 11 12 13 15 15 17 23 25 22 21 22 18 14 12 14 17 19 13 15
Wind_Direction
316 328 157 44 47 64 269 265 258 275 65 184 90 118 165 150 136 186 3 163 175 172 171 171 172 169 168 166 164 162 159 152 146 140 136 136 134 133 130 130 129 130 129 126 122 121 117 117 121
317 145 78 77 81 44 279 261 226 176 140 111 85 138 50 80 90 124 128 185 181 165 168 172 174 174 174 172 167 163 159 153 147 142 138 134 131 130 127 120 118 117 122 131 133 130 127 130 128
118 155 84 93 103 188 249 275 302 93 157 169 124 58 49 69 107 153 208 173 171 167 171 173 176 179 177 174 168 164 163 160 154 147 144 143 143 145 137 140 127 120 126 131 134 134 135 137 135
147 12 40 87 224 254 231 281 249 155 107 51 97 78 70 1 169 166 156 161 167 172 175 176 176 176 176 174 173 171 170 170 163 158 155 156 156 151 146 146 130 135 142 141 135 135 136 138 142
42 49 53 54 269 261 250 253 251 145 84 141 167 162 101 46 138 146 157 163 167 173 176 175 176 177 177 176 177 175 176 175 172 171 170 171 169 164 166 161 161 181 187 167 152 149 142 147 151
34 99 47 280 251 271 290 249 294 100 140 168 99 120 169 144 146 156 159 162 169 173 177 176 177 177 176 176 177 179 181 180 179 178 180 182 182 183 186 191 196 199 208 192 174 164 154 155 155
118 79 225 264 275 302 275 326 203 135 154 230 144 127 268 203 174 163 159 159 166 172 177 178 176 177 180 180 182 183 186 186 184 184 188 189 191 200 213 226 219 218 215 215 196 184 168 165 163
108 96 286 254 306 287 304 314 123 149 32 112 169 176 227 206 171 161 155 157 160 171 179 183 181 184 187 189 190 190 190 191 192 191 193 196 202 223 246 237 210 221 237 237 233 218 185 176 181
119 65 243 267 267 287 320 2 322 319 113 193 131 155 271 165 163 153 151 160 173 182 186 189 190 192 194 193 191 193 195 194 197 198 201 204 210 224 249 238 240 242 247 251 250 238 213 188 191
108 125 229 212 267 301 315 304 292 21 2 348 23 23 131 149 160 154 165 167 180 190 195 196 196 194 196 196 195 195 196 197 201 204 208 212 216 231 271 265 255 248 248 254 243 229 213 204 200
178 205 232 271 251 235 246 273 232 120 327 240 210 168 149 144 160 170 185 186 191 198 197 197 199 200 201 201 199 199 200 202 207 212 216 215 219 232 252 260 255 252 256 251 244 234 221 208 204
280 244 219 281 332 286 234 231 254 187 225 218 203 169 155 167 178 183 193 191 194 199 199 198 202 205 206 207 203 202 204 206 211 216 219 220 225 233 244 256 252 255 261 259 252 244 228 214 201
199 259 286 275 291 255 276 250 235 259 248 197 137 166 176 186 193 200 197 190 199 200 200 202 204 207 206 205 205 207 212 215 219 220 222 226 231 236 240 245 247 247 249 254 258 250 232 214 194
282 277 276 274 252 232 229 248 147 253 112 154 168 191 191 196 201 180 193 192 203 203 204 204 208 208 207 208 208 213 216 225 226 227 231 234 239 244 248 249 250 255 250 250 255 253 239 222 202
283 308 313 249 279 250 174 293 227 261 274 194 201 212 206 212 192 204 195 199 204 208 208 207 208 209 209 209 212 215 223 231 233 233 237 239 242 247 252 254 256 255 253 257 259 251 247 232 216
346 37 337 302 339 328 134 261 273 281 286 271 225 221 218 243 218 220 217 210 205 204 211 210 210 211 214 215 216 218 226 230 238 242 245 245 244 245 245 254 258 257 252 256 259 253 246 243 222
353 255 262 309 29 301 72 262 286 357 335 277 219 179 159 207 237 228 225 215 207 205 208 208 209 211 214 218 217 222 231 236 240 245 250 253 249 246 243 251 256 258 255 260 257 248 244 245 225
225 307 270 263 311 7 337 283 310 303 323 297 294 216 188 189 245 269 225 208 201 198 202 203 202 208 211 211 212 219 226 230 237 249 256 261 256 256 258 258 263 265 261 257 251 243 243 250 219
300 257 252 269 278 11 308 299 284 285 220 246 252 254 206 191 197 115 163 183 179 188 194 197 195 196 199 195 191 197 211 231 245 269 270 269 267 266 260 264 269 267 265 262 255 239 239 235 211
239 247 266 274 260 222 249 269 269 256 248 239 253 207 200 168 143 37 105 149 173 177 187 186 190 186 190 188 193 199 220 233 256 263 268 271 271 273 270 271 271 272 271 267 261 245 234 231 219
233 210 239 238 330 274 341 290 282 280 258 270 258 230 188 150 128 72 56 99 133 146 169 171 175 174 178 185 182 197 215 235 251 255 255 257 259 261 263 263 265 268 270 269 262 250 234 213 214
293 229 249 311 23 284 45 280 290 284 289 273 355 79 140 134 127 110 87 84 115 128 145 148 153 159 168 183 191 204 218 231 255 265 265 266 267 267 270 270 271 267 263 261 262 260 249 236 212
230 164 276 285 235 328 121 86 269 331 308 284 352 132 132 128 132 126 119 122 126 134 137 144 154 165 174 185 201 212 231 254 268 267 273 276 273 270 268 270 267 267 264 262 257 255 250 244 223
89 40 42 58 111 279 224 172 276 252 214 257 168 159 146 133 134 130 144 143 143 148 154 161 169 177 188 202 214 228 250 258 263 265 264 272 275 270 264 261 262 263 269 267 265 257 248 250 238
101 75 318 327 341 233 237 306 235 260 272 233 179 168 156 149 152 153 160 165 159 163 170 177 185 195 205 215 227 242 255 259 258 260 264 269 268 269 266 259 254 254 257 261 262 263 266 269 263
184 158 173 237 227 250 314 248 248 232 303 276 140 144 153 173 174 178 181 172 173 179 187 193 202 213 219 231 247 256 256 260 264 270 266 264 265 271 276 263 258 249 252 259 262 264 264 261 259
176 169 197 240 307 341 240 291 312 179 37 127 146 163 179 190 197 191 186 190 190 196 204 210 217 226 232 241 253 265 269 263 266 272 271 266 267 266 262 260 260 255 250 252 253 255 259 258 261
161 163 66 1 281 266 263 267 235 249 223 189 182 189 191 200 194 197 205 204 203 207 210 213 216 223 233 240 249 258 262 266 275 276 275 268 265 265 259 254 254 251 251 252 254 256 257 259 265
163 195 136 162 154 239 292 256 220 222 210 197 206 196 196 193 192 192 198 204 208 212 211 218 228 236 244 245 246 245 252 262 271 278 281 276 267 272 264 256 251 244 248 254 261 264 265 260 264
175 208 182 207 239 221 221 266 207 218 221 194 208 192 198 189 197 201 203 203 202 211 222 235 242 257 252 251 246 254 264 268 269 277 282 279 268 267 267 256 246 248 253 259 261 270 265 254 263
Height
772 772 772 773 800 807 807 790 767 760 753 747 743 753 760 762 766 782 759 760 760 764 771 775 777 779 781 784 786 790 793 795 797 798 800 801 803 805 805 806 805 806 807 808 809 809 811 813 813
771 771 772 784 810 816 804 778 766 754 749 744 747 753 758 765 757 760 762 762 764 765 770 774 778 781 783 785 788 792 796 798 800 802 803 805 806 808 809 810 810 809 809 810 809 810 811 812 813
769 770 780 800 821 813 800 766 757 750 746 747 753 751 754 761 758 758 758 761 765 768 771 774 777 781 784 787 791 794 797 801 802 803 805 806 808 808 809 810 810 811 811 812 810 810 812 812 813
770 771 784 804 803 791 778 760 755 753 750 746 750 761 754 753 755 755 759 760 763 768 771 774 778 781 784 787 790 793 796 800 802 803 805 807 809 810 810 813 812 814 813 812 812 812 813 812 813
771 781 804 804 801 783 768 755 751 748 751 752 751 763 759 755 755 754 758 761 763 769 773 776 778 781 783 786 789 791 794 797 799 801 803 805 807 809 810 810 812 815 814 815 813 813 813 813 812
781 788 810 812 795 775 762 749 748 746 750 752 757 760 760 756 756 758 761 763 766 770 776 779 782 784 787 789 791 794 796 797 799 800 802 804 805 807 808 810 812 811 812 812 813 813 813 814 813
784 799 806 799 794 779 759 744 750 748 751 752 750 766 760 758 758 758 761 765 769 773 778 780 783 786 789 791 794 795 798 800 802 803 805 807 808 810 810 811 811 812 812 813 812 813 814 815 814
779 791 797 796 793 787 755 750 743 746 749 744 744 762 763 752 757 761 763 766 769 773 777 780 781 783 785 787 789 792 795 799 802 803 805 808 809 811 811 811 812 813 813 814 814 815 814 816 815
774 800 809 790 783 773 754 754 743 741 748 747 746 746 745 749 756 760 763 765 766 768 770 772 772 775 780 785 789 792 797 799 803 805 807 808 809 809 810 811 812 813 813 814 814 815 817 816 816
784 804 792 777 769 766 760 756 750 750 754 749 751 748 745 749 756 758 760 762 765 768 770 773 777 780 785 787 789 792 794 797 800 803 806 808 811 812 812 812 812 811 812 814 813 814 815 817 818
778 791 774 765 763 760 761 756 747 751 757 747 750 751 749 752 756 759 760 759 761 765 770 774 778 781 784 788 791 794 797 800 802 805 807 808 809 810 810 810 810 811 812 812 812 812 813 813 816
779 768 767 762 756 756 759 749 751 751 746 736 739 744 747 750 753 756 756 758 761 764 769 773 777 781 785 788 790 793 795 798 801 803 805 807 808 809 809 810 810 811 811 811 811 812 811 812 814
775 766 761 756 757 755 752 753 751 749 738 737 740 745 745 746 746 750 756 761 763 766 769 772 775 777 780 784 788 791 794 797 798 800 802 804 805 805 807 807 808 808 808 810 811 811 810 811 812
765 765 764 756 752 751 751 751 746 741 737 741 742 742 742 744 743 751 755 757 759 762 765 769 773 777 780 782 786 788 792 794 796 799 800 801 803 804 805 805 806 808 807 807 808 810 810 810 811
764 772 763 754 750 750 745 754 752 736 735 740 742 740 739 740 746 747 747 751 753 757 762 764 769 773 777 780 783 786 788 790 792 794 796 798 799 801 803 803 804 804 805 807 807 807 810 809 808
773 774 783 755 751 748 746 766 743 734 737 739 740 740 740 741 741 743 744 744 749 754 758 762 766 771 774 777 780 784 786 787 790 792 794 796 797 798 800 802 801 802 802 803 804 806 807 809 806
786 794 783 773 752 752 755 761 740 734 739 738 738 741 743 742 739 738 737 739 742 747 753 759 763 768 772 776 781 782 785 788 790 792 792 793 794 795 797 796 797 798 798 799 801 801 803 805 806
792 789 783 783 764 758 761 760 751 745 743 743 742 741 741 740 737 736 731 734 739 745 750 755 761 767 771 775 778 782 785 786 787 787 789 791 791 793 794 794 794 794 795 794 796 796 799 802 797
783 785 785 776 762 761 762 765 755 744 746 747 741 739 740 738 734 733 733 735 739 744 748 753 758 764 770 773 777 779 781 783 785 786 786 787 787 787 788 788 790 791 791 790 791 792 793 798 798
782 782 784 772 762 762 765 766 747 743 737 730 728 734 732 735 736 735 732 734 736 741 746 752 758 764 769 773 776 779 781 782 784 784 784 785 785 786 786 787 786 787 786 787 787 787 788 790 794
774 777 778 778 770 766 768 769 753 737 732 729 728 731 731 736 741 740 739 737 738 743 747 753 759 765 770 773 776 779 780 780 781 779 780 780 780 780 780 779 781 781 781 782 782 782 784 785 788
781 766 767 771 780 792 769 795 766 744 742 731 738 734 736 738 741 742 744 744 745 748 752 757 762 767 770 773 774 775 776 775 775 775 775 776 777 776 776 775 776 776 775 775 778 778 779 782 783
773 758 765 768 781 786 785 797 765 748 741 735 740 742 742 743 745 747 749 750 752 754 757 760 763 766 768 770 771 771 772 771 771 771 771 771 771 771 770 770 769 770 771 770 773 775 775 775 778
757 764 774 788 793 806 779 786 776 756 737 735 739 744 744 747 750 751 752 753 755 756 758 761 763 765 766 767 768 767 767 767 769 769 768 767 767 766 766 766 766 767 768 769 770 771 771 772 771
765 783 807 807 808 801 769 779 764 736 731 730 737 743 746 748 749 751 752 753 755 757 758 760 761 762 763 765 765 765 764 765 765 764 764 763 762 763 763 764 764 765 766 767 767 767 769 769 768
772 777 803 802 807 793 771 773 751 730 731 725 731 741 745 747 747 748 748 750 752 753 755 757 759 759 759 760 759 759 759 760 760 759 759 759 759 757 759 760 761 761 762 763 763 764 764 764 764
770 781 769 785 791 803 783 757 735 731 734 735 736 740 744 745 744 744 745 745 747 748 749 751 751 752 753 755 755 755 755 756 756 756 756 754 754 754 754 755 756 758 757 757 757 758 758 759 759
756 761 786 795 798 797 776 767 755 739 735 739 740 738 741 742 743 743 743 743 744 745 746 747 747 747 748 748 749 750 750 751 753 753 751 750 748 749 750 751 750 752 753 752 753 754 753 754 755
763 767 767 775 789 793 787 763 736 731 729 731 730 732 734 736 738 738 738 739 741 743 744 745 746 745 745 745 745 745 745 747 747 747 746 745 745 746 745 746 746 746 748 748 748 749 750 750 749
751 760 764 777 783 791 788 720 715 721 720 724 725 728 731 733 734 734 734 736 737 739 741 741 742 743 742 743 743 742 742 742 742 742 740 739 738 738 738 739 740 741 741 743 744 745 746 746 746